Orangeburg, SC

11:22 AM EST on February 20, 2018 (GMT -0500)
Orangeburg Municipal

Weather History for KOGB - March, 2013

Change the Weather History Date:

Wednesday, March 20, 2013

  Actual Average Record
Temperature  
Mean Temperature 51 °F 58 °F  
Max Temperature 60 °F 70 °F 85 °F (1984)
Min Temperature 42 °F 45 °F 29 °F (1981)
Degree Days  
Heating Degree Days 14 8  
Month to date heating degree days 260 204  
Since 1 July heating degree days 1893 2136  
Cooling Degree Days 0 1  
Month to date cooling degree days 3 12  
Year to date cooling degree days 23 15  
Moisture  
Dew Point 24 °F    
Average Humidity 36    
Maximum Humidity 76    
Minimum Humidity 21    
Precipitation  
Precipitation 0.00 in 0.13 in 1.47 in (2003)
Month to date precipitation 1.10 2.61  
Year to date precipitation 9.26 10.18  
Sea Level Pressure  
Sea Level Pressure 29.99 in    
Wind  
Wind Speed 4 mph (NNE)    
Max Wind Speed 12 mph    
Max Gust Speed 16 mph    
Visibility 10 miles    
Events      
T = Trace of Precipitation, MM = Missing Value Source: NWS Daily Summary

Daily Weather History Graph

Daily Weather History Graph

Search for Another Location

Airport or City:

Trip Planner

Search our weather history database for the weather conditions in past years. The results will help you decide how hot, cold, wet, or windy it might be!

Date:

Astronomy

Mar. 20, 2013 Rise Set
Actual Time 7:26 AM EDT 7:35 PM EDT
Civil Twilight 7:02 AM EDT 8:00 PM EDT
Nautical Twilight 6:33 AM EDT 8:29 PM EDT
Astronomical Twilight 6:03 AM EDT 8:58 PM EDT
Moon 1:24 PM EDT 2:49 AM EDT
Length of Visible Light 12h 58m
Length of Day
12h 08m
First Quarter, 59% of the Moon is Illuminated
Mar 20
First Quarter
Mar 27
Full
Apr 3
Last Quarter
Apr 10
New
Apr 18
First Quarter

Hourly Weather History & Observations

Time (EDT) Temp. Windchill Dew Point Humidity Pressure Visibility Wind Dir Wind Speed Gust Speed Precip Events Conditions
12:53 AM 54.0 °F - 30.9 °F 41% 30.03 in 10.0 mi North 3.5 mph - N/A   Clear
1:53 AM 55.0 °F - 26.1 °F 33% 30.03 in 10.0 mi North 3.5 mph - N/A   Clear
2:53 AM 53.1 °F - 27.0 °F 37% 30.04 in 10.0 mi North 3.5 mph - N/A   Clear
3:53 AM 51.1 °F - 24.1 °F 35% 30.03 in 10.0 mi NNE 4.6 mph - N/A   Clear
4:53 AM 50.0 °F - 21.9 °F 33% 30.02 in 10.0 mi North 5.8 mph - N/A   Clear
5:53 AM 48.0 °F - 19.9 °F 33% 30.03 in 10.0 mi NNE 4.6 mph - N/A   Clear
6:53 AM 48.0 °F - 23.0 °F 37% 30.07 in 10.0 mi Calm Calm - N/A   Clear
7:53 AM 46.0 °F 43.9 °F 24.1 °F 42% 30.09 in 10.0 mi NNE 4.6 mph - N/A   Clear
8:53 AM 51.1 °F - 21.0 °F 31% 30.12 in 10.0 mi NE 5.8 mph - N/A   Clear
9:53 AM 52.0 °F - 21.9 °F 31% 30.12 in 10.0 mi ENE 8.1 mph - N/A   Partly Cloudy
10:53 AM 54.0 °F - 19.9 °F 26% 30.12 in 10.0 mi NE 8.1 mph - N/A   Mostly Cloudy
11:53 AM 54.0 °F - 16.0 °F 22% 30.10 in 10.0 mi NE 6.9 mph - N/A   Partly Cloudy
12:53 PM 55.0 °F - 19.9 °F 25% 30.08 in 10.0 mi Variable 4.6 mph - N/A   Scattered Clouds
1:53 PM 57.0 °F - 19.0 °F 23% 30.03 in 10.0 mi SE 5.8 mph - N/A   Overcast
2:53 PM 57.0 °F - 18.0 °F 22% 29.99 in 10.0 mi East 4.6 mph - N/A   Overcast
3:53 PM 59.0 °F - 19.0 °F 21% 29.94 in 10.0 mi North 4.6 mph - N/A   Mostly Cloudy
4:53 PM 59.0 °F - 19.9 °F 22% 29.92 in 10.0 mi South 3.5 mph - N/A   Clear
5:53 PM 59.0 °F - 21.9 °F 24% 29.90 in 10.0 mi West 5.8 mph - N/A   Clear
6:53 PM 57.9 °F - 26.1 °F 30% 29.89 in 10.0 mi Calm Calm - N/A   Clear
7:53 PM 51.1 °F - 33.1 °F 50% 29.87 in 10.0 mi Calm Calm - N/A   Clear
8:53 PM 46.0 °F - 35.1 °F 66% 29.87 in 10.0 mi Calm Calm - N/A   Clear
9:53 PM 45.0 °F - 34.0 °F 65% 29.86 in 10.0 mi Calm Calm - N/A   Clear
10:53 PM 42.1 °F - 36.0 °F 79% 29.86 in 10.0 mi Calm Calm - N/A   Clear
11:53 PM 48.9 °F - 28.9 °F 46% 29.84 in 10.0 mi West 6.9 mph - N/A   Clear